QPF
0.00 0.00 0.00 0.00 0.00 0.00 0.00 0.00 0.00 0.00 0.00 0.00 0.00 0.00 0.01 0.03 0.02 0.03 0.03 0.04 0.01 0.01 0.00 0.00 0.01 0.01 0.03 0.11 0.09 0.17 0.31 0.23 0.11
0.00 0.00 0.00 0.00 0.00 0.00 0.00 0.00 0.00 0.00 0.00 0.00 0.00 0.00 0.02 0.05 0.06 0.04 0.04 0.06 0.04 0.03 0.00 0.02 0.06 0.09 0.06 0.27 0.41 0.38 0.49 0.57 0.22
0.00 0.00 0.00 0.00 0.00 0.00 0.00 0.00 0.00 0.00 0.00 0.00 0.00 0.00 0.02 0.03 0.06 0.08 0.10 0.07 0.11 0.07 0.05 0.04 0.06 0.22 0.39 0.31 0.24 0.20 0.18 0.22 0.17
0.00 0.00 0.00 0.00 0.00 0.00 0.00 0.00 0.00 0.00 0.00 0.00 0.00 0.00 0.01 0.04 0.04 0.04 0.04 0.02 0.01 0.02 0.01 0.02 0.08 0.45 0.23 0.05 0.02 0.01 0.00 0.00 0.00
0.00 0.00 0.00 0.00 0.00 0.00 0.00 0.00 0.00 0.00 0.00 0.00 0.00 0.00 0.00 0.00 0.02 0.03 0.01 0.02 0.02 0.00 0.00 0.00 0.05 0.10 0.02 0.00 0.00 0.00 0.00 0.00 0.00
0.00 0.00 0.00 0.00 0.00 0.00 0.00 0.00 0.00 0.00 0.00 0.00 0.00 0.00 0.00 0.00 0.00 0.00 0.00 0.00 0.01 0.01 0.00 0.00 0.01 0.03 0.03 0.00 0.00 0.00 0.00 0.00 0.00
0.00 0.00 0.00 0.00 0.00 0.00 0.00 0.00 0.00 0.00 0.00 0.00 0.00 0.00 0.00 0.00 0.00 0.00 0.00 0.00 0.00 0.00 0.00 0.00 0.00 0.00 0.00 0.00 0.00 0.00 0.00 0.00 0.00
0.00 0.00 0.00 0.00 0.00 0.00 0.00 0.00 0.00 0.00 0.00 0.00 0.00 0.00 0.00 0.00 0.00 0.00 0.00 0.00 0.00 0.00 0.00 0.00 0.00 0.00 0.00 0.00 0.00 0.00 0.00 0.00 0.00
0.00 0.00 0.00 0.00 0.00 0.00 0.00 0.00 0.00 0.00 0.00 0.00 0.00 0.00 0.00 0.00 0.00 0.00 0.00 0.00 0.00 0.00 0.00 0.00 0.00 0.00 0.00 0.00 0.00 0.00 0.00 0.00 0.00
0.00 0.00 0.00 0.00 0.00 0.00 0.00 0.00 0.00 0.00 0.00 0.00 0.00 0.00 0.00 0.00 0.00 0.00 0.00 0.00 0.00 0.00 0.00 0.00 0.00 0.00 0.00 0.00 0.00 0.00 0.00 0.00 0.00
0.00 0.00 0.00 0.00 0.00 0.00 0.00 0.00 0.00 0.00 0.00 0.00 0.00 0.00 0.00 0.00 0.00 0.00 0.00 0.00 0.00 0.00 0.00 0.00 0.00 0.00 0.00 0.00 0.00 0.00 0.00 0.00 0.00
0.00 0.00 0.00 0.00 0.00 0.00 0.00 0.00 0.00 0.00 0.00 0.00 0.00 0.00 0.00 0.00 0.00 0.00 0.00 0.00 0.00 0.00 0.00 0.00 0.00 0.00 0.00 0.00 0.00 0.00 0.00 0.00 0.00
0.00 0.00 0.00 0.00 0.00 0.00 0.00 0.00 0.00 0.00 0.00 0.00 0.00 0.00 0.00 0.00 0.00 0.00 0.00 0.00 0.00 0.00 0.00 0.00 0.00 0.00 0.00 0.00 0.00 0.00 0.00 0.00 0.02
0.00 0.00 0.00 0.00 0.00 0.00 0.00 0.00 0.00 0.00 0.00 0.00 0.00 0.00 0.00 0.00 0.00 0.00 0.00 0.00 0.00 0.00 0.00 0.00 0.00 0.00 0.00 0.01 0.00 0.01 0.01 0.04 0.05
0.00 0.00 0.00 0.00 0.00 0.00 0.00 0.00 0.00 0.00 0.00 0.00 0.00 0.00 0.00 0.00 0.00 0.00 0.00 0.00 0.00 0.00 0.00 0.00 0.00 0.01 0.09 0.06 0.08 0.14 0.14 0.14 0.09
0.00 0.00 0.00 0.00 0.00 0.00 0.00 0.00 0.00 0.00 0.00 0.00 0.00 0.00 0.00 0.00 0.00 0.00 0.00 0.00 0.00 0.00 0.01 0.04 0.06 0.06 0.08 0.08 0.07 0.03 0.04 0.04 0.04
0.00 0.00 0.00 0.00 0.00 0.05 0.07 0.04 0.01 0.00 0.00 0.00 0.00 0.00 0.00 0.00 0.00 0.00 0.00 0.00 0.00 0.00 0.01 0.02 0.01 0.00 0.01 0.01 0.00 0.00 0.01 0.02 0.02
0.00 0.02 0.03 0.00 0.00 0.05 0.17 0.26 0.34 0.39 0.43 0.29 0.06 0.01 0.03 0.03 0.04 0.01 0.01 0.00 0.00 0.00 0.00 0.00 0.00 0.00 0.00 0.00 0.00 0.00 0.00 0.01 0.01
0.00 0.07 0.09 0.04 0.01 0.03 0.11 0.19 0.27 0.33 0.39 0.32 0.22 0.15 0.10 0.06 0.05 0.02 0.00 0.00 0.00 0.00 0.00 0.00 0.00 0.00 0.00 0.00 0.01 0.01 0.01 0.01 0.00
0.00 0.00 0.05 0.10 0.06 0.03 0.02 0.03 0.02 0.03 0.05 0.01 0.04 0.03 0.02 0.02 0.00 0.00 0.00 0.00 0.00 0.00 0.00 0.00 0.00 0.01 0.00 0.00 0.00 0.00 0.00 0.00 0.00
MSLP
1001.99 1002.57 1003.06 1003.27 1003.80 1004.40 1005.22 1006.11 1006.84 1007.45 1008.19 1008.92 1009.61 1010.20 1010.68 1011.35 1011.99 1012.40 1012.82 1013.12 1013.53 1013.85 1014.05 1013.95 1013.96 1014.26 1014.65 1015.09 1015.43 1015.71 1016.11 1016.65 1016.85
1002.02 1002.11 1002.57 1002.78 1003.19 1003.85 1004.59 1005.54 1006.10 1006.46 1007.36 1008.14 1008.79 1009.24 1010.14 1010.72 1011.33 1011.77 1012.08 1012.56 1012.99 1013.31 1013.51 1013.60 1013.64 1013.72 1014.27 1014.90 1015.28 1015.53 1015.92 1015.75 1016.18
1001.63 1001.96 1002.30 1002.48 1002.69 1003.32 1003.92 1004.50 1005.24 1006.01 1006.74 1007.23 1007.86 1008.68 1009.35 1009.88 1010.32 1010.84 1011.43 1012.11 1012.32 1012.65 1012.97 1013.14 1013.27 1013.70 1014.32 1014.54 1014.90 1014.89 1015.49 1015.42 1015.86
1001.49 1001.65 1001.84 1001.86 1001.89 1002.37 1003.08 1003.87 1004.64 1005.28 1006.09 1006.96 1007.44 1007.85 1008.63 1009.20 1009.60 1010.20 1010.87 1011.26 1011.62 1011.97 1012.28 1012.58 1012.97 1013.36 1013.70 1013.38 1013.85 1014.40 1014.76 1014.79 1015.10
1001.01 1000.94 1001.08 1001.38 1001.49 1001.82 1002.35 1003.24 1004.01 1004.50 1005.31 1006.06 1006.64 1007.13 1007.82 1008.44 1009.06 1009.55 1010.10 1010.43 1010.78 1011.24 1011.68 1011.92 1012.37 1012.99 1013.30 1013.59 1013.73 1014.04 1014.31 1014.41 1014.56
1001.46 1000.93 1000.94 1000.92 1001.34 1001.73 1001.98 1002.36 1003.21 1003.92 1004.65 1005.14 1006.08 1006.84 1007.28 1007.74 1008.37 1008.92 1009.24 1009.68 1010.16 1010.71 1011.02 1011.26 1011.82 1012.43 1013.11 1013.33 1013.66 1013.88 1014.09 1014.30 1014.38
1001.68 1001.75 1000.90 1001.01 1001.03 1001.04 1001.29 1001.94 1002.37 1003.11 1003.92 1004.62 1005.54 1006.44 1006.90 1007.31 1007.79 1008.23 1008.68 1009.16 1009.72 1010.12 1010.44 1010.88 1011.39 1011.86 1012.28 1012.61 1012.84 1013.11 1013.44 1013.79 1014.05
1001.78 1001.11 1000.82 1000.62 1000.80 1000.59 1001.02 1001.44 1002.06 1002.56 1003.25 1004.01 1004.98 1005.86 1006.32 1006.69 1007.21 1007.82 1008.42 1008.77 1009.10 1009.55 1010.09 1010.40 1010.81 1011.37 1011.83 1012.22 1012.58 1012.80 1013.03 1013.19 1013.33
1002.25 1001.48 1001.31 1000.46 1000.19 1000.67 1000.55 1001.14 1001.08 1001.98 1002.87 1003.61 1004.40 1004.92 1005.37 1006.07 1006.65 1007.24 1007.88 1008.36 1008.88 1009.41 1009.76 1010.17 1010.55 1010.81 1011.26 1011.79 1012.10 1012.41 1012.73 1012.88 1013.01
1002.44 1001.86 1001.03 1000.33 1000.08 999.65 999.62 1000.10 1000.99 1001.51 1002.42 1003.24 1004.43 1004.92 1004.99 1005.45 1006.18 1006.78 1007.33 1007.89 1008.47 1009.05 1009.46 1009.88 1010.27 1010.58 1010.92 1011.31 1011.65 1011.76 1012.02 1012.44 1012.82
1002.52 1001.65 1001.08 1000.39 999.97 1000.34 998.88 998.71 999.96 1001.55 1002.15 1002.93 1003.96 1004.57 1004.92 1005.12 1005.66 1006.32 1007.01 1007.57 1008.05 1008.60 1009.13 1009.42 1009.87 1010.29 1010.61 1010.93 1011.16 1011.46 1011.80 1012.05 1012.34
1002.98 1001.94 1000.69 1000.09 999.96 999.69 999.84 999.16 999.76 1001.20 1001.45 1002.44 1003.43 1004.10 1004.58 1005.06 1005.40 1005.98 1006.70 1007.23 1007.65 1008.20 1008.69 1009.11 1009.45 1009.74 1010.12 1010.47 1010.65 1010.92 1011.28 1011.69 1012.03
1001.93 1001.19 1000.48 999.79 999.86 999.23 999.48 1000.09 1000.54 1000.20 1001.00 1002.11 1002.78 1003.62 1003.86 1004.47 1005.11 1005.67 1006.33 1006.79 1007.26 1007.78 1008.17 1008.46 1008.90 1009.21 1009.50 1009.75 1010.10 1010.35 1010.57 1010.95 1011.19
1002.54 1001.59 1000.25 999.36 999.16 998.79 999.09 999.76 999.38 999.99 1000.53 1001.50 1001.91 1002.83 1003.45 1004.06 1004.82 1005.27 1005.68 1006.37 1006.95 1007.36 1007.84 1008.19 1008.50 1008.78 1009.02 1009.25 1009.46 1009.75 1010.05 1010.32 1010.64
1002.94 1001.78 1000.77 999.95 999.66 999.33 998.84 999.46 999.57 999.66 999.96 1000.68 1001.67 1002.68 1003.19 1003.91 1004.77 1005.27 1005.67 1006.23 1006.69 1007.13 1007.55 1007.92 1008.20 1008.44 1008.58 1008.83 1008.97 1009.29 1009.53 1009.82 1010.11
1003.52 1002.51 1001.45 1000.47 999.94 1000.02 999.89 999.96 1000.36 999.67 999.65 1000.62 1001.71 1002.57 1002.97 1003.83 1004.53 1004.94 1005.40 1006.07 1006.62 1007.14 1007.46 1007.78 1008.02 1008.33 1008.40 1008.63 1008.84 1009.07 1009.34 1009.56 1009.76
1003.90 1003.11 1002.04 1001.03 1000.58 1000.29 1000.50 1000.52 1000.91 1001.53 1001.56 1000.85 1001.47 1002.44 1003.06 1003.76 1004.54 1005.23 1005.88 1006.16 1006.69 1007.16 1007.59 1007.83 1008.12 1008.38 1008.65 1008.83 1008.87 1008.99 1009.24 1009.60 1009.81
1003.96 1003.77 1002.67 1002.04 1001.56 1001.07 1000.85 1000.89 1001.61 1002.17 1003.23 1003.14 1002.40 1002.59 1003.57 1004.39 1004.53 1005.05 1006.04 1006.82 1007.40 1007.66 1007.97 1008.02 1008.17 1008.57 1008.71 1008.92 1009.02 1008.92 1008.92 1009.13 1009.46
1003.82 1003.83 1003.22 1002.82 1002.06 1001.52 1001.15 1000.52 1000.85 1001.69 1002.82 1003.14 1003.81 1004.64 1004.88 1004.89 1005.28 1006.05 1006.47 1007.26 1008.08 1008.46 1008.65 1008.61 1008.66 1008.92 1008.93 1009.06 1009.36 1009.34 1009.44 1009.53 1009.54
1003.26 1003.45 1003.31 1002.78 1001.87 1000.94 1000.01 1000.57 1000.50 1000.96 1003.47 1004.48 1005.45 1005.80 1006.13 1006.44 1006.10 1006.41 1006.87 1007.36 1007.80 1008.48 1009.25 1009.19 1009.20 1009.28 1009.40 1009.57 1009.67 1009.75 1009.94 1009.92 1009.91
Thickness
5857 5852 5853 5855 5853 5850 5844 5838 5834 5830 5823 5817 5813 5808 5803 5798 5793 5790 5786 5784 5780 5777 5776 5779 5781 5778 5775 5769 5768 5766 5763 5760 5759
5852 5853 5854 5857 5857 5854 5849 5843 5839 5837 5830 5824 5820 5816 5806 5801 5795 5792 5790 5787 5783 5780 5780 5780 5781 5780 5775 5768 5764 5763 5758 5750 5754
5851 5855 5857 5859 5859 5857 5854 5852 5847 5841 5836 5831 5826 5819 5811 5806 5802 5799 5795 5789 5787 5784 5782 5782 5780 5776 5770 5767 5765 5764 5756 5752 5753
5854 5856 5858 5862 5865 5864 5861 5856 5852 5846 5840 5832 5828 5825 5816 5812 5809 5803 5798 5794 5792 5789 5786 5784 5780 5777 5774 5774 5771 5766 5764 5763 5763
5859 5865 5866 5866 5868 5867 5865 5857 5854 5850 5845 5839 5835 5830 5825 5819 5813 5808 5803 5801 5798 5794 5788 5787 5782 5777 5775 5773 5772 5768 5767 5768 5768
5851 5861 5862 5867 5866 5865 5866 5864 5857 5853 5848 5846 5840 5833 5830 5825 5818 5812 5809 5806 5803 5797 5794 5792 5787 5781 5775 5773 5771 5770 5768 5767 5766
5841 5846 5859 5859 5864 5868 5870 5866 5862 5858 5853 5849 5842 5835 5832 5828 5823 5818 5814 5810 5805 5802 5799 5795 5790 5786 5781 5778 5776 5775 5772 5769 5766
5839 5846 5853 5857 5858 5863 5867 5865 5861 5860 5856 5852 5845 5837 5835 5832 5827 5821 5816 5812 5810 5806 5801 5798 5795 5789 5785 5781 5777 5775 5772 5770 5768
5829 5837 5841 5855 5860 5858 5864 5864 5867 5861 5854 5850 5846 5843 5841 5836 5830 5824 5818 5814 5810 5805 5802 5798 5795 5792 5788 5782 5779 5776 5771 5768 5765
5815 5827 5840 5848 5854 5865 5868 5867 5862 5860 5855 5849 5839 5837 5840 5838 5831 5825 5820 5815 5809 5804 5800 5798 5793 5791 5787 5782 5780 5776 5772 5766 5762
5809 5823 5832 5841 5852 5851 5869 5872 5866 5855 5852 5847 5838 5835 5834 5836 5833 5826 5820 5814 5809 5804 5800 5796 5792 5788 5785 5781 5778 5774 5769 5766 5763
5802 5816 5832 5841 5846 5852 5852 5858 5859 5852 5852 5845 5837 5833 5831 5830 5829 5825 5818 5813 5809 5805 5799 5794 5790 5788 5784 5779 5778 5774 5769 5764 5760
5804 5818 5828 5837 5841 5851 5848 5846 5846 5854 5848 5842 5837 5832 5833 5830 5826 5821 5815 5812 5807 5803 5799 5795 5790 5786 5783 5780 5776 5773 5769 5764 5760
5791 5805 5822 5835 5844 5848 5847 5844 5852 5846 5843 5840 5840 5833 5831 5828 5822 5818 5816 5809 5804 5800 5795 5791 5787 5784 5780 5777 5775 5772 5767 5762 5758
5776 5793 5809 5822 5829 5835 5843 5841 5843 5842 5841 5842 5835 5827 5826 5822 5815 5813 5810 5805 5800 5796 5792 5787 5782 5780 5777 5774 5774 5768 5764 5760 5757
5759 5774 5792 5808 5818 5820 5824 5828 5827 5834 5837 5833 5827 5821 5820 5815 5811 5810 5807 5800 5795 5790 5787 5783 5780 5774 5771 5767 5766 5765 5760 5757 5754
5741 5757 5774 5791 5802 5809 5808 5812 5812 5810 5811 5824 5820 5813 5810 5807 5802 5797 5793 5792 5789 5784 5778 5775 5772 5768 5764 5760 5759 5758 5755 5751 5748
5726 5737 5755 5770 5782 5790 5797 5800 5796 5796 5791 5792 5801 5804 5796 5790 5791 5789 5781 5776 5773 5771 5767 5767 5764 5760 5758 5754 5752 5751 5750 5746 5742
5713 5723 5738 5748 5762 5774 5782 5792 5792 5787 5779 5759 5766 5767 5770 5774 5774 5769 5769 5764 5758 5750 5749 5748 5748 5745 5746 5745 5739 5737 5734 5731 5729
5708 5716 5726 5737 5753 5769 5783 5783 5788 5788 5756 5743 5748 5750 5752 5754 5760 5759 5756 5753 5750 5745 5736 5733 5734 5733 5732 5728 5727 5724 5720 5718 5716